SERVIS 2 DEB, 43393

Orbit data source: Space-Track

SERVIS 2 DEB, 43393 is space debris in SSO originally from a launch on Wed, 02 Jun 2010 UTC launched from the Plesetsk Missile And Space Complex (PKMTR). Debris objects in space refer to the collection of defunct objects orbiting the Earth. Examples of debris include non-operational satellites, rocket bodies, and fragments generated from explosions, collisions, or faulty payload assembly.

Loading next visibility...
Identifier
43393, 2010-023C
Orbit
SSO
Country
Flag of CISCIS
Related business
Manufacturer
MELCO
Mission
Spacecraft
Bus & Motor
Unknown
Mass
Unknown
Launch date (UTC)
2010-06-02 (15 years ago)
Launch vehicle
Unknown
Launch site
Plesetsk Missile And Space Complex (PKMTR)
Object type
Payload
Rocket body
Debris
Shape & HBR
Unknown shape, 0.1 m
Radar Cross Section
Small (<0.1 m²)

Expand to show TLE details & history
Last TLE update: 2 days ago

TLE from 2 days ago
0 SERVIS 2 DEB
1 43393U 10023C   25306.16505114  .00005334  00000-0  90713-2 0  9994
2 43393 100.5830 278.1021 0007542  34.9652 325.1971 13.45525745579931
Epoch: 2025-11-02T03:57Z
TLE epoch observation values (Epoch: 2025-11-02T03:57:40.418Z)
Latitude
0.00001°
Longitude
176.99899°
Altitude
1,086.89 km
Speed
7.311 km/s
True Right ascension
18h 32m 24s
True Declination
0° 00' 00"
Sunlit
Object was in daylight at epoch
Visualization orbit readout
Latitude
Unknown
Longitude
Unknown
Altitude
Unknown
Speed
Unknown
Apparent Right ascension
Unknown
Apparent Declination
Unknown
Sunlit
N/A
Visualization observer readout
Local Sidereal Time
15:06:24
Azimuth
Unknown
Elevation
Unknown
Doppler factor
Unknown
Orbital elements
Apogee altitude
1,091.75 km
Perigee altitude
1,080.491 km
Semi-major axis
7,464.257 km
Eccentricity
0.00075
Inclination
100.583°
RAAN
278.1021°
Arg. of periapsis
34.9652°
True anomaly
325.14773°
Mean anomaly
325.1971°
Eccentric anomaly
325.17242°
Mean motion
3.36561 °/min
Orbital period
106.96 mins
BSTAR
0.0090713
Loading maneuver chart data...
Computing Atmospheric mass density...
Loading historical data...
Loading historical data...
Loading historical data...
Loading historical data...
Loading historical data...
Loading historical data...
Loading historical data...
Other satellites on launch #23 in the year 2010 (2010-06-02 UTC)

Documentation

Showing up to 5 results
|